Вернуться в каталог

COSMOS 1275 DEB

АктивенPO
NORAD 42101·DEBRIS·🇷🇺 Russia

Запущен Jun 4, 1981 с Plesetsk Cosmodrome

Loading…

Ближайшие Пролёты (ближайшие 24 часа)

TLE

СвежийSource: Space-Track

Эпоха: Sep 12, 2026, 11:39 UTC

1 42101U 81053PM  26255.48552686  .00054443  00000-0  32813-2 0  9998
2 42101  82.7592 163.8385 0005402  66.2384 293.9412 15.10517713627058

Отслеживайте COSMOS 1275 DEB в реальном времени с AllMySat

Download on the App Store